#datetime,building,power
2023-04-13T00:00:00,axn,29.26
2023-04-13T00:01:00,axn,30.99
2023-04-13T00:02:00,axn,29.92
2023-04-13T00:03:00,axn,30.75
2023-04-13T00:04:00,axn,30.42
2023-04-13T00:05:00,axn,30.60
2023-04-13T00:06:00,axn,30.37
2023-04-13T00:07:00,axn,30.55
2023-04-13T00:08:00,axn,30.63
2023-04-13T00:09:00,axn,30.62
2023-04-13T00:10:00,axn,30.72
2023-04-13T00:11:00,axn,30.50
2023-04-13T00:12:00,axn,30.87
2023-04-13T00:13:00,axn,30.50
2023-04-13T00:14:00,axn,30.62
2023-04-13T00:15:00,axn,30.81
2023-04-13T00:16:00,axn,30.93
2023-04-13T00:17:00,axn,30.84
2023-04-13T00:18:00,axn,31.01
2023-04-13T00:19:00,axn,31.03
2023-04-13T00:20:00,axn,30.97
2023-04-13T00:21:00,axn,30.98
2023-04-13T00:22:00,axn,31.09
2023-04-13T00:23:00,axn,30.88
2023-04-13T00:24:00,axn,30.54
2023-04-13T00:25:00,axn,30.51
2023-04-13T00:26:00,axn,30.67
2023-04-13T00:27:00,axn,30.59
2023-04-13T00:28:00,axn,31.05
2023-04-13T00:29:00,axn,31.30
2023-04-13T00:30:00,axn,30.79
2023-04-13T00:31:00,axn,30.92
2023-04-13T00:32:00,axn,30.87
2023-04-13T00:33:00,axn,30.87
2023-04-13T00:34:00,axn,30.79
2023-04-13T00:35:00,axn,30.72
2023-04-13T00:36:00,axn,30.77
2023-04-13T00:37:00,axn,30.84
2023-04-13T00:38:00,axn,30.71
2023-04-13T00:39:00,axn,30.61
2023-04-13T00:40:00,axn,31.00
2023-04-13T00:41:00,axn,30.73
2023-04-13T00:42:00,axn,30.90
2023-04-13T00:43:00,axn,31.03
2023-04-13T00:44:00,axn,30.93
2023-04-13T00:45:00,axn,31.14
2023-04-13T00:46:00,axn,31.12
2023-04-13T00:47:00,axn,30.87
2023-04-13T00:48:00,axn,30.64
2023-04-13T00:49:00,axn,30.30
2023-04-13T00:50:00,axn,30.21
2023-04-13T00:51:00,axn,30.18
2023-04-13T00:52:00,axn,30.32
2023-04-13T00:53:00,axn,30.57
2023-04-13T00:54:00,axn,30.49
2023-04-13T00:55:00,axn,30.77
2023-04-13T00:56:00,axn,30.93
2023-04-13T00:57:00,axn,30.93
2023-04-13T00:58:00,axn,30.51
2023-04-13T00:59:00,axn,30.53
2023-04-13T01:00:00,axn,30.33
2023-04-13T01:01:00,axn,30.57
2023-04-13T01:02:00,axn,31.06
2023-04-13T01:03:00,axn,30.67
2023-04-13T01:04:00,axn,30.66
2023-04-13T01:05:00,axn,31.15
2023-04-13T01:06:00,axn,30.51
2023-04-13T01:07:00,axn,30.36
2023-04-13T01:08:00,axn,30.49
2023-04-13T01:09:00,axn,30.75
2023-04-13T01:10:00,axn,31.05
2023-04-13T01:11:00,axn,30.27
2023-04-13T01:12:00,axn,27.66
2023-04-13T01:13:00,axn,26.52
2023-04-13T01:14:00,axn,26.52
2023-04-13T01:15:00,axn,26.51
2023-04-13T01:16:00,axn,26.59
2023-04-13T01:17:00,axn,26.71
2023-04-13T01:18:00,axn,26.66
2023-04-13T01:19:00,axn,26.97
2023-04-13T01:20:00,axn,26.67
2023-04-13T01:21:00,axn,26.63
2023-04-13T01:22:00,axn,26.80
2023-04-13T01:23:00,axn,26.83
2023-04-13T01:24:00,axn,26.57
2023-04-13T01:25:00,axn,26.57
2023-04-13T01:26:00,axn,26.56
2023-04-13T01:27:00,axn,26.53
2023-04-13T01:28:00,axn,26.42
2023-04-13T01:29:00,axn,26.80
2023-04-13T01:30:00,axn,29.50
2023-04-13T01:31:00,axn,29.45
2023-04-13T01:32:00,axn,29.48
2023-04-13T01:33:00,axn,26.47
2023-04-13T01:34:00,axn,26.80
2023-04-13T01:35:00,axn,26.40
2023-04-13T01:36:00,axn,26.50
2023-04-13T01:37:00,axn,26.58
2023-04-13T01:38:00,axn,26.59
2023-04-13T01:39:00,axn,26.70
2023-04-13T01:40:00,axn,26.61
2023-04-13T01:41:00,axn,26.63
2023-04-13T01:42:00,axn,26.65
2023-04-13T01:43:00,axn,26.60
2023-04-13T01:44:00,axn,26.45
2023-04-13T01:45:00,axn,26.30
2023-04-13T01:46:00,axn,26.86
2023-04-13T01:47:00,axn,27.09
2023-04-13T01:48:00,axn,26.68
2023-04-13T01:49:00,axn,26.57
2023-04-13T01:50:00,axn,26.00
2023-04-13T01:51:00,axn,25.97
2023-04-13T01:52:00,axn,25.94
2023-04-13T01:53:00,axn,26.32
2023-04-13T01:54:00,axn,26.18
2023-04-13T01:55:00,axn,26.06
2023-04-13T01:56:00,axn,25.95
2023-04-13T01:57:00,axn,26.17
2023-04-13T01:58:00,axn,25.94
2023-04-13T01:59:00,axn,25.79
2023-04-13T02:00:00,axn,26.45
2023-04-13T02:01:00,axn,26.25
2023-04-13T02:02:00,axn,26.13
2023-04-13T02:03:00,axn,25.94
2023-04-13T02:04:00,axn,25.87
2023-04-13T02:05:00,axn,25.92
2023-04-13T02:06:00,axn,26.22
2023-04-13T02:07:00,axn,28.88
2023-04-13T02:08:00,axn,28.90
2023-04-13T02:09:00,axn,26.05
2023-04-13T02:10:00,axn,26.32
2023-04-13T02:11:00,axn,26.03
2023-04-13T02:12:00,axn,25.60
2023-04-13T02:13:00,axn,26.17
2023-04-13T02:14:00,axn,26.14
2023-04-13T02:15:00,axn,25.96
2023-04-13T02:16:00,axn,25.86
2023-04-13T02:17:00,axn,26.10
2023-04-13T02:18:00,axn,26.02
2023-04-13T02:19:00,axn,25.83
2023-04-13T02:20:00,axn,26.13
2023-04-13T02:21:00,axn,26.19
2023-04-13T02:22:00,axn,26.21
2023-04-13T02:23:00,axn,26.27
2023-04-13T02:24:00,axn,26.21
2023-04-13T02:25:00,axn,26.15
2023-04-13T02:26:00,axn,26.32
2023-04-13T02:27:00,axn,26.38
2023-04-13T02:28:00,axn,26.78
2023-04-13T02:29:00,axn,26.39
2023-04-13T02:30:00,axn,26.55
2023-04-13T02:31:00,axn,26.54
2023-04-13T02:32:00,axn,27.09
2023-04-13T02:33:00,axn,27.05
2023-04-13T02:34:00,axn,27.49
2023-04-13T02:35:00,axn,27.51
2023-04-13T02:36:00,axn,27.66
2023-04-13T02:37:00,axn,27.77
2023-04-13T02:38:00,axn,28.35
2023-04-13T02:39:00,axn,28.67
2023-04-13T02:40:00,axn,28.48
2023-04-13T02:41:00,axn,28.55
2023-04-13T02:42:00,axn,28.47
2023-04-13T02:43:00,axn,28.54
2023-04-13T02:44:00,axn,29.07
2023-04-13T02:45:00,axn,28.53
2023-04-13T02:46:00,axn,28.68
2023-04-13T02:47:00,axn,28.49
2023-04-13T02:48:00,axn,28.49
2023-04-13T02:49:00,axn,28.35
2023-04-13T02:50:00,axn,28.24
2023-04-13T02:51:00,axn,28.35
2023-04-13T02:52:00,axn,28.39
2023-04-13T02:53:00,axn,28.33
2023-04-13T02:54:00,axn,28.75
2023-04-13T02:55:00,axn,28.61
2023-04-13T02:56:00,axn,28.69
2023-04-13T02:57:00,axn,33.89
2023-04-13T02:58:00,axn,33.67
2023-04-13T02:59:00,axn,33.69
2023-04-13T03:00:00,axn,28.05
2023-04-13T03:01:00,axn,27.77
2023-04-13T03:02:00,axn,27.14
2023-04-13T03:03:00,axn,26.82
2023-04-13T03:04:00,axn,26.69
2023-04-13T03:05:00,axn,26.61
2023-04-13T03:06:00,axn,26.49
2023-04-13T03:07:00,axn,26.60
2023-04-13T03:08:00,axn,26.18
2023-04-13T03:09:00,axn,27.03
2023-04-13T03:10:00,axn,26.76
2023-04-13T03:11:00,axn,26.71
2023-04-13T03:12:00,axn,26.88
2023-04-13T03:13:00,axn,26.35
2023-04-13T03:14:00,axn,26.51
2023-04-13T03:15:00,axn,26.47
2023-04-13T03:16:00,axn,26.60
2023-04-13T03:17:00,axn,26.20
2023-04-13T03:18:00,axn,26.21
2023-04-13T03:19:00,axn,26.22
2023-04-13T03:20:00,axn,25.97
2023-04-13T03:21:00,axn,26.07
2023-04-13T03:22:00,axn,26.07
2023-04-13T03:23:00,axn,25.96
2023-04-13T03:24:00,axn,25.89
2023-04-13T03:25:00,axn,25.94
2023-04-13T03:26:00,axn,25.80
2023-04-13T03:27:00,axn,26.03
2023-04-13T03:28:00,axn,28.89
2023-04-13T03:29:00,axn,28.80
2023-04-13T03:30:00,axn,27.91
2023-04-13T03:31:00,axn,25.34
2023-04-13T03:32:00,axn,25.37
2023-04-13T03:33:00,axn,25.32
2023-04-13T03:34:00,axn,25.23
2023-04-13T03:35:00,axn,25.14
2023-04-13T03:36:00,axn,25.27
2023-04-13T03:37:00,axn,25.24
2023-04-13T03:38:00,axn,25.28
2023-04-13T03:39:00,axn,25.65
2023-04-13T03:40:00,axn,25.91
2023-04-13T03:41:00,axn,25.48
2023-04-13T03:42:00,axn,25.13
2023-04-13T03:43:00,axn,25.13
2023-04-13T03:44:00,axn,24.64
2023-04-13T03:45:00,axn,26.39
2023-04-13T03:46:00,axn,26.40
2023-04-13T03:47:00,axn,26.52
2023-04-13T03:48:00,axn,26.55
2023-04-13T03:49:00,axn,28.03
2023-04-13T03:50:00,axn,28.64
2023-04-13T03:51:00,axn,31.21
2023-04-13T03:52:00,axn,27.67
2023-04-13T03:53:00,axn,27.94
2023-04-13T03:54:00,axn,29.85
2023-04-13T03:55:00,axn,30.21
2023-04-13T03:56:00,axn,28.55
2023-04-13T03:57:00,axn,28.83
2023-04-13T03:58:00,axn,28.62
2023-04-13T03:59:00,axn,28.65
2023-04-13T04:00:00,axn,28.87
2023-04-13T04:01:00,axn,28.34
2023-04-13T04:02:00,axn,28.30
2023-04-13T04:03:00,axn,28.56
2023-04-13T04:04:00,axn,28.55
2023-04-13T04:05:00,axn,28.94
2023-04-13T04:06:00,axn,28.57
2023-04-13T04:07:00,axn,28.83
2023-04-13T04:08:00,axn,28.82
2023-04-13T04:09:00,axn,28.88
2023-04-13T04:10:00,axn,28.59
2023-04-13T04:11:00,axn,28.53
2023-04-13T04:12:00,axn,28.44
2023-04-13T04:13:00,axn,28.33
2023-04-13T04:14:00,axn,28.29
2023-04-13T04:15:00,axn,28.39
2023-04-13T04:16:00,axn,28.40
2023-04-13T04:17:00,axn,28.49
2023-04-13T04:18:00,axn,27.83
2023-04-13T04:19:00,axn,28.70
2023-04-13T04:20:00,axn,25.31
2023-04-13T04:21:00,axn,24.12
2023-04-13T04:22:00,axn,24.31
2023-04-13T04:23:00,axn,24.37
2023-04-13T04:24:00,axn,24.04
2023-04-13T04:25:00,axn,24.25
2023-04-13T04:26:00,axn,38.67
2023-04-13T04:27:00,axn,38.45
2023-04-13T04:28:00,axn,38.37
2023-04-13T04:29:00,axn,38.34
2023-04-13T04:30:00,axn,38.11
2023-04-13T04:31:00,axn,38.03
2023-04-13T04:32:00,axn,24.21
2023-04-13T04:33:00,axn,24.17
2023-04-13T04:34:00,axn,24.09
2023-04-13T04:35:00,axn,24.22
2023-04-13T04:36:00,axn,24.68
2023-04-13T04:37:00,axn,24.02
2023-04-13T04:38:00,axn,24.74
2023-04-13T04:39:00,axn,24.02
2023-04-13T04:40:00,axn,23.96
2023-04-13T04:41:00,axn,24.05
2023-04-13T04:42:00,axn,24.03
2023-04-13T04:43:00,axn,23.94
2023-04-13T04:44:00,axn,24.67
2023-04-13T04:45:00,axn,41.48
2023-04-13T04:46:00,axn,24.95
2023-04-13T04:47:00,axn,25.14
2023-04-13T04:48:00,axn,24.89
2023-04-13T04:49:00,axn,25.08
2023-04-13T04:50:00,axn,25.01
2023-04-13T04:51:00,axn,24.93
2023-04-13T04:52:00,axn,25.19
2023-04-13T04:53:00,axn,24.88
2023-04-13T04:54:00,axn,24.83
2023-04-13T04:55:00,axn,24.82
2023-04-13T04:56:00,axn,24.63
2023-04-13T04:57:00,axn,24.26
2023-04-13T04:58:00,axn,24.91
2023-04-13T04:59:00,axn,24.86
2023-04-13T05:00:00,axn,24.59
2023-04-13T05:01:00,axn,22.54
2023-04-13T05:02:00,axn,22.72
2023-04-13T05:03:00,axn,22.93
2023-04-13T05:04:00,axn,22.57
2023-04-13T05:05:00,axn,22.63
2023-04-13T05:06:00,axn,22.43
2023-04-13T05:07:00,axn,39.33
2023-04-13T05:08:00,axn,22.85
2023-04-13T05:09:00,axn,22.48
2023-04-13T05:10:00,axn,22.73
2023-04-13T05:11:00,axn,22.98
2023-04-13T05:12:00,axn,23.05
2023-04-13T05:13:00,axn,22.80
2023-04-13T05:14:00,axn,22.77
2023-04-13T05:15:00,axn,22.99
2023-04-13T05:16:00,axn,23.66
2023-04-13T05:17:00,axn,23.28
2023-04-13T05:18:00,axn,23.19
2023-04-13T05:19:00,axn,23.04
2023-04-13T05:20:00,axn,23.04
2023-04-13T05:21:00,axn,22.87
2023-04-13T05:22:00,axn,22.82
2023-04-13T05:23:00,axn,22.75
2023-04-13T05:24:00,axn,22.96
2023-04-13T05:25:00,axn,26.00
2023-04-13T05:26:00,axn,22.78
2023-04-13T05:27:00,axn,22.57
2023-04-13T05:28:00,axn,23.00
2023-04-13T05:29:00,axn,22.97
2023-04-13T05:30:00,axn,22.95
2023-04-13T05:31:00,axn,25.53
2023-04-13T05:32:00,axn,25.45
2023-04-13T05:33:00,axn,25.46
2023-04-13T05:34:00,axn,25.36
2023-04-13T05:35:00,axn,25.13
2023-04-13T05:36:00,axn,25.03
2023-04-13T05:37:00,axn,25.09
2023-04-13T05:38:00,axn,25.38
2023-04-13T05:39:00,axn,25.14
2023-04-13T05:40:00,axn,25.26
2023-04-13T05:41:00,axn,25.38
2023-04-13T05:42:00,axn,25.30
2023-04-13T05:43:00,axn,25.21
2023-04-13T05:44:00,axn,25.38
2023-04-13T05:45:00,axn,25.35
2023-04-13T05:46:00,axn,25.78
2023-04-13T05:47:00,axn,25.29
2023-04-13T05:48:00,axn,35.63
2023-04-13T05:49:00,axn,35.45
2023-04-13T05:50:00,axn,35.37
2023-04-13T05:51:00,axn,35.28
2023-04-13T05:52:00,axn,35.16
2023-04-13T05:53:00,axn,25.19
2023-04-13T05:54:00,axn,25.20
2023-04-13T05:55:00,axn,24.91
2023-04-13T05:56:00,axn,24.91
2023-04-13T05:57:00,axn,24.84
2023-04-13T05:58:00,axn,24.73
2023-04-13T05:59:00,axn,24.82
2023-04-13T06:00:00,axn,24.63
2023-04-13T06:01:00,axn,24.84
2023-04-13T06:02:00,axn,25.03
2023-04-13T06:03:00,axn,25.01
2023-04-13T06:04:00,axn,24.98
2023-04-13T06:05:00,axn,24.89
2023-04-13T06:06:00,axn,25.09
2023-04-13T06:07:00,axn,24.80
2023-04-13T06:08:00,axn,24.67
2023-04-13T06:09:00,axn,24.83
2023-04-13T06:10:00,axn,29.44
2023-04-13T06:11:00,axn,29.33
2023-04-13T06:12:00,axn,25.17
2023-04-13T06:13:00,axn,24.89
2023-04-13T06:14:00,axn,25.15
2023-04-13T06:15:00,axn,25.07
2023-04-13T06:16:00,axn,24.85
2023-04-13T06:17:00,axn,24.15
2023-04-13T06:18:00,axn,24.25
2023-04-13T06:19:00,axn,24.67
2023-04-13T06:20:00,axn,24.35
2023-04-13T06:21:00,axn,24.43
2023-04-13T06:22:00,axn,24.55
2023-04-13T06:23:00,axn,24.38
2023-04-13T06:24:00,axn,24.60
2023-04-13T06:25:00,axn,27.61
2023-04-13T06:26:00,axn,27.18
2023-04-13T06:27:00,axn,27.24
2023-04-13T06:28:00,axn,24.35
2023-04-13T06:29:00,axn,24.27
2023-04-13T06:30:00,axn,24.29
2023-04-13T06:31:00,axn,24.28
2023-04-13T06:32:00,axn,24.00
2023-04-13T06:33:00,axn,24.04
2023-04-13T06:34:00,axn,24.23
2023-04-13T06:35:00,axn,23.99
2023-04-13T06:36:00,axn,24.27
2023-04-13T06:37:00,axn,23.99
2023-04-13T06:38:00,axn,23.75
2023-04-13T06:39:00,axn,23.71
2023-04-13T06:40:00,axn,23.69
2023-04-13T06:41:00,axn,23.87
2023-04-13T06:42:00,axn,23.87
2023-04-13T06:43:00,axn,24.08
2023-04-13T06:44:00,axn,23.75
2023-04-13T06:45:00,axn,23.82
2023-04-13T06:46:00,axn,23.48
2023-04-13T06:47:00,axn,23.46
2023-04-13T06:48:00,axn,23.55
2023-04-13T06:49:00,axn,23.49
2023-04-13T06:50:00,axn,23.56
2023-04-13T06:51:00,axn,23.47
2023-04-13T06:52:00,axn,24.24
2023-04-13T06:53:00,axn,24.15
2023-04-13T06:54:00,axn,24.12
2023-04-13T06:55:00,axn,24.18
2023-04-13T06:56:00,axn,24.27
2023-04-13T06:57:00,axn,24.02
2023-04-13T06:58:00,axn,24.44
2023-04-13T06:59:00,axn,24.45
2023-04-13T07:00:00,axn,24.75
2023-04-13T07:01:00,axn,27.51
2023-04-13T07:02:00,axn,28.88
2023-04-13T07:03:00,axn,30.73
2023-04-13T07:04:00,axn,30.15
2023-04-13T07:05:00,axn,29.71
2023-04-13T07:06:00,axn,30.44
2023-04-13T07:07:00,axn,31.29
2023-04-13T07:08:00,axn,31.28
2023-04-13T07:09:00,axn,30.65
2023-04-13T07:10:00,axn,30.69
2023-04-13T07:11:00,axn,30.36
2023-04-13T07:12:00,axn,30.28
2023-04-13T07:13:00,axn,30.03
2023-04-13T07:14:00,axn,30.18
2023-04-13T07:15:00,axn,30.13
2023-04-13T07:16:00,axn,29.66
2023-04-13T07:17:00,axn,30.12
2023-04-13T07:18:00,axn,30.05
2023-04-13T07:19:00,axn,30.15
2023-04-13T07:20:00,axn,30.26
2023-04-13T07:21:00,axn,30.15
2023-04-13T07:22:00,axn,30.07
2023-04-13T07:23:00,axn,30.13
2023-04-13T07:24:00,axn,29.87
2023-04-13T07:25:00,axn,30.09
2023-04-13T07:26:00,axn,29.86
2023-04-13T07:27:00,axn,30.21
2023-04-13T07:28:00,axn,30.52
2023-04-13T07:29:00,axn,30.16
2023-04-13T07:30:00,axn,30.79
2023-04-13T07:31:00,axn,30.92
2023-04-13T07:32:00,axn,31.29
2023-04-13T07:33:00,axn,31.20
2023-04-13T07:34:00,axn,31.31
2023-04-13T07:35:00,axn,31.32
2023-04-13T07:36:00,axn,30.31
2023-04-13T07:37:00,axn,30.38
2023-04-13T07:38:00,axn,30.61
2023-04-13T07:39:00,axn,30.26
2023-04-13T07:40:00,axn,30.29
2023-04-13T07:41:00,axn,30.48
2023-04-13T07:42:00,axn,30.02
2023-04-13T07:43:00,axn,29.91
2023-04-13T07:44:00,axn,29.89
2023-04-13T07:45:00,axn,29.93
2023-04-13T07:46:00,axn,29.89
2023-04-13T07:47:00,axn,29.58
2023-04-13T07:48:00,axn,29.98
2023-04-13T07:49:00,axn,29.89
2023-04-13T07:50:00,axn,31.18
2023-04-13T07:51:00,axn,31.51
2023-04-13T07:52:00,axn,30.46
2023-04-13T07:53:00,axn,31.04
2023-04-13T07:54:00,axn,31.07
2023-04-13T07:55:00,axn,30.99
2023-04-13T07:56:00,axn,30.64
2023-04-13T07:57:00,axn,30.54
2023-04-13T07:58:00,axn,30.27
2023-04-13T07:59:00,axn,30.41
2023-04-13T08:00:00,axn,30.44
2023-04-13T08:01:00,axn,30.46
2023-04-13T08:02:00,axn,33.92
2023-04-13T08:03:00,axn,33.96
2023-04-13T08:04:00,axn,34.38
2023-04-13T08:05:00,axn,33.84
2023-04-13T08:06:00,axn,33.81
2023-04-13T08:07:00,axn,33.88
2023-04-13T08:08:00,axn,33.91
2023-04-13T08:09:00,axn,34.32
2023-04-13T08:10:00,axn,33.90
2023-04-13T08:11:00,axn,33.77
2023-04-13T08:12:00,axn,33.68
2023-04-13T08:13:00,axn,37.28
2023-04-13T08:14:00,axn,37.13
2023-04-13T08:15:00,axn,35.54
2023-04-13T08:16:00,axn,36.82
2023-04-13T08:17:00,axn,36.85
2023-04-13T08:18:00,axn,37.35
2023-04-13T08:19:00,axn,36.85
2023-04-13T08:20:00,axn,37.09
2023-04-13T08:21:00,axn,37.43
2023-04-13T08:22:00,axn,36.28
2023-04-13T08:23:00,axn,36.58
2023-04-13T08:24:00,axn,36.78
2023-04-13T08:25:00,axn,37.40
2023-04-13T08:26:00,axn,36.63
2023-04-13T08:27:00,axn,37.30
2023-04-13T08:28:00,axn,36.77
2023-04-13T08:29:00,axn,37.05
2023-04-13T08:30:00,axn,36.92
2023-04-13T08:31:00,axn,37.10
2023-04-13T08:32:00,axn,37.07
2023-04-13T08:33:00,axn,37.13
2023-04-13T08:34:00,axn,37.06
2023-04-13T08:35:00,axn,37.00
2023-04-13T08:36:00,axn,37.12
2023-04-13T08:37:00,axn,36.74
2023-04-13T08:38:00,axn,36.95
2023-04-13T08:39:00,axn,37.27
2023-04-13T08:40:00,axn,37.65
2023-04-13T08:41:00,axn,38.02
2023-04-13T08:42:00,axn,38.40
2023-04-13T08:43:00,axn,38.30
2023-04-13T08:44:00,axn,38.36
2023-04-13T08:45:00,axn,38.87
2023-04-13T08:46:00,axn,39.48
2023-04-13T08:47:00,axn,38.82
2023-04-13T08:48:00,axn,38.62
2023-04-13T08:49:00,axn,38.20
2023-04-13T08:50:00,axn,37.54
2023-04-13T08:51:00,axn,37.50
2023-04-13T08:52:00,axn,37.84
2023-04-13T08:53:00,axn,37.76
2023-04-13T08:54:00,axn,37.50
2023-04-13T08:55:00,axn,37.89
2023-04-13T08:56:00,axn,37.95
2023-04-13T08:57:00,axn,37.48
2023-04-13T08:58:00,axn,37.16
2023-04-13T08:59:00,axn,39.98
2023-04-13T09:00:00,axn,46.42
2023-04-13T09:01:00,axn,45.73
2023-04-13T09:02:00,axn,43.36
2023-04-13T09:03:00,axn,37.30
2023-04-13T09:04:00,axn,37.34
2023-04-13T09:05:00,axn,37.50
2023-04-13T09:06:00,axn,37.62
2023-04-13T09:07:00,axn,37.47
2023-04-13T09:08:00,axn,37.49
2023-04-13T09:09:00,axn,37.49
2023-04-13T09:10:00,axn,37.80
2023-04-13T09:11:00,axn,37.40
2023-04-13T09:12:00,axn,37.54
2023-04-13T09:13:00,axn,37.79
2023-04-13T09:14:00,axn,37.20
2023-04-13T09:15:00,axn,36.99
2023-04-13T09:16:00,axn,37.02
2023-04-13T09:17:00,axn,37.07
2023-04-13T09:18:00,axn,37.14
2023-04-13T09:19:00,axn,36.78
2023-04-13T09:20:00,axn,36.90
2023-04-13T09:21:00,axn,37.94
2023-04-13T09:22:00,axn,37.22
2023-04-13T09:23:00,axn,37.07
2023-04-13T09:24:00,axn,37.14
2023-04-13T09:25:00,axn,36.83
2023-04-13T09:26:00,axn,36.84
2023-04-13T09:27:00,axn,37.87
2023-04-13T09:28:00,axn,37.61
2023-04-13T09:29:00,axn,37.93
2023-04-13T09:30:00,axn,37.74
2023-04-13T09:31:00,axn,37.67
2023-04-13T09:32:00,axn,37.58
2023-04-13T09:33:00,axn,37.43
2023-04-13T09:34:00,axn,37.48
2023-04-13T09:35:00,axn,36.70
2023-04-13T09:36:00,axn,38.22
2023-04-13T09:37:00,axn,39.17
2023-04-13T09:38:00,axn,39.57
2023-04-13T09:39:00,axn,53.82
2023-04-13T09:40:00,axn,53.84
2023-04-13T09:41:00,axn,53.51
2023-04-13T09:42:00,axn,53.65
2023-04-13T09:43:00,axn,53.59
2023-04-13T09:44:00,axn,42.78
2023-04-13T09:45:00,axn,43.12
2023-04-13T09:46:00,axn,45.09
2023-04-13T09:47:00,axn,43.26
2023-04-13T09:48:00,axn,43.58
2023-04-13T09:49:00,axn,44.37
2023-04-13T09:50:00,axn,43.52
2023-04-13T09:51:00,axn,43.45
2023-04-13T09:52:00,axn,43.83
2023-04-13T09:53:00,axn,43.77
2023-04-13T09:54:00,axn,43.34
2023-04-13T09:55:00,axn,43.34
2023-04-13T09:56:00,axn,44.15
2023-04-13T09:57:00,axn,43.79
2023-04-13T09:58:00,axn,44.05
2023-04-13T09:59:00,axn,43.71
2023-04-13T10:00:00,axn,43.36
2023-04-13T10:01:00,axn,43.80
2023-04-13T10:02:00,axn,43.35
2023-04-13T10:03:00,axn,43.62
2023-04-13T10:04:00,axn,43.63
2023-04-13T10:05:00,axn,44.79
2023-04-13T10:06:00,axn,45.23
2023-04-13T10:07:00,axn,44.33
2023-04-13T10:08:00,axn,44.13
2023-04-13T10:09:00,axn,47.70
2023-04-13T10:10:00,axn,47.35
2023-04-13T10:11:00,axn,47.30
2023-04-13T10:12:00,axn,44.88
2023-04-13T10:13:00,axn,44.51
2023-04-13T10:14:00,axn,45.10
2023-04-13T10:15:00,axn,44.12
2023-04-13T10:16:00,axn,44.54
2023-04-13T10:17:00,axn,45.83
2023-04-13T10:18:00,axn,46.63
2023-04-13T10:19:00,axn,45.29
2023-04-13T10:20:00,axn,45.09
2023-04-13T10:21:00,axn,45.38
2023-04-13T10:22:00,axn,45.59
2023-04-13T10:23:00,axn,44.76
2023-04-13T10:24:00,axn,44.80
2023-04-13T10:25:00,axn,45.26
2023-04-13T10:26:00,axn,45.15
2023-04-13T10:27:00,axn,45.28
2023-04-13T10:28:00,axn,45.22
2023-04-13T10:29:00,axn,44.98
2023-04-13T10:30:00,axn,44.90
2023-04-13T10:31:00,axn,44.92
2023-04-13T10:32:00,axn,45.49
2023-04-13T10:33:00,axn,48.00
2023-04-13T10:34:00,axn,47.97
2023-04-13T10:35:00,axn,45.19
2023-04-13T10:36:00,axn,45.15
2023-04-13T10:37:00,axn,45.02
2023-04-13T10:38:00,axn,45.05
2023-04-13T10:39:00,axn,45.01
2023-04-13T10:40:00,axn,45.05
2023-04-13T10:41:00,axn,45.16
2023-04-13T10:42:00,axn,44.99
2023-04-13T10:43:00,axn,45.08
2023-04-13T10:44:00,axn,45.85
2023-04-13T10:45:00,axn,46.58
2023-04-13T10:46:00,axn,46.36
2023-04-13T10:47:00,axn,45.51
2023-04-13T10:48:00,axn,45.60
2023-04-13T10:49:00,axn,45.07
2023-04-13T10:50:00,axn,45.02
2023-04-13T10:51:00,axn,45.14
2023-04-13T10:52:00,axn,45.33
2023-04-13T10:53:00,axn,45.32
2023-04-13T10:54:00,axn,44.88
2023-04-13T10:55:00,axn,45.25
2023-04-13T10:56:00,axn,45.38
2023-04-13T10:57:00,axn,45.94
2023-04-13T10:58:00,axn,58.29
2023-04-13T10:59:00,axn,55.71
2023-04-13T11:00:00,axn,55.01
2023-04-13T11:01:00,axn,54.91
2023-04-13T11:02:00,axn,54.56
2023-04-13T11:03:00,axn,44.35
2023-04-13T11:04:00,axn,44.83
2023-04-13T11:05:00,axn,44.38
2023-04-13T11:06:00,axn,45.06
2023-04-13T11:07:00,axn,45.09
2023-04-13T11:08:00,axn,45.04
2023-04-13T11:09:00,axn,45.61
2023-04-13T11:10:00,axn,45.54
2023-04-13T11:11:00,axn,44.47
2023-04-13T11:12:00,axn,44.76
2023-04-13T11:13:00,axn,44.61
2023-04-13T11:14:00,axn,47.47
2023-04-13T11:15:00,axn,47.59
2023-04-13T11:16:00,axn,47.75
2023-04-13T11:17:00,axn,45.10
2023-04-13T11:18:00,axn,44.93
2023-04-13T11:19:00,axn,44.46
2023-04-13T11:20:00,axn,45.43
2023-04-13T11:21:00,axn,44.65
2023-04-13T11:22:00,axn,45.11
2023-04-13T11:23:00,axn,45.22
2023-04-13T11:24:00,axn,44.62
2023-04-13T11:25:00,axn,45.01
2023-04-13T11:26:00,axn,44.17
2023-04-13T11:27:00,axn,44.51
2023-04-13T11:28:00,axn,44.35
2023-04-13T11:29:00,axn,44.32
2023-04-13T11:30:00,axn,44.45
2023-04-13T11:31:00,axn,44.66
2023-04-13T11:32:00,axn,50.25
2023-04-13T11:33:00,axn,44.60
2023-04-13T11:34:00,axn,44.32
2023-04-13T11:35:00,axn,44.39
2023-04-13T11:36:00,axn,44.81
2023-04-13T11:37:00,axn,44.76
2023-04-13T11:38:00,axn,44.86
2023-04-13T11:39:00,axn,45.12
2023-04-13T11:40:00,axn,45.36
2023-04-13T11:41:00,axn,45.15
2023-04-13T11:42:00,axn,45.08
2023-04-13T11:43:00,axn,47.66
2023-04-13T11:44:00,axn,47.26
2023-04-13T11:45:00,axn,44.91
2023-04-13T11:46:00,axn,59.31
2023-04-13T11:47:00,axn,44.79
2023-04-13T11:48:00,axn,44.94
2023-04-13T11:49:00,axn,44.62
2023-04-13T11:50:00,axn,44.19
2023-04-13T11:51:00,axn,43.18
2023-04-13T11:52:00,axn,42.46
2023-04-13T11:53:00,axn,42.06
2023-04-13T11:54:00,axn,42.43
2023-04-13T11:55:00,axn,42.20
2023-04-13T11:56:00,axn,42.76
2023-04-13T11:57:00,axn,50.78
2023-04-13T11:58:00,axn,50.89
2023-04-13T11:59:00,axn,50.26
2023-04-13T12:00:00,axn,55.01
2023-04-13T12:01:00,axn,54.70
2023-04-13T12:02:00,axn,54.75
2023-04-13T12:03:00,axn,50.55
2023-04-13T12:04:00,axn,50.64
2023-04-13T12:05:00,axn,51.54
2023-04-13T12:06:00,axn,51.48
2023-04-13T12:07:00,axn,50.95
2023-04-13T12:08:00,axn,50.88
2023-04-13T12:09:00,axn,51.64
2023-04-13T12:10:00,axn,52.05
2023-04-13T12:11:00,axn,51.82
2023-04-13T12:12:00,axn,51.21
2023-04-13T12:13:00,axn,51.60
2023-04-13T12:14:00,axn,50.94
2023-04-13T12:15:00,axn,50.70
2023-04-13T12:16:00,axn,52.95
2023-04-13T12:17:00,axn,53.24
2023-04-13T12:18:00,axn,53.27
2023-04-13T12:19:00,axn,52.93
2023-04-13T12:20:00,axn,50.29
2023-04-13T12:21:00,axn,50.62
2023-04-13T12:22:00,axn,50.00
2023-04-13T12:23:00,axn,49.83
2023-04-13T12:24:00,axn,49.93
2023-04-13T12:25:00,axn,50.24
2023-04-13T12:26:00,axn,50.26
2023-04-13T12:27:00,axn,50.21
2023-04-13T12:28:00,axn,49.49
2023-04-13T12:29:00,axn,49.23
2023-04-13T12:30:00,axn,49.57
2023-04-13T12:31:00,axn,49.15
2023-04-13T12:32:00,axn,49.12
2023-04-13T12:33:00,axn,49.08
2023-04-13T12:34:00,axn,49.02
2023-04-13T12:35:00,axn,49.02
2023-04-13T12:36:00,axn,49.29
2023-04-13T12:37:00,axn,41.36
2023-04-13T12:38:00,axn,41.31
2023-04-13T12:39:00,axn,41.07
2023-04-13T12:40:00,axn,41.46
2023-04-13T12:41:00,axn,41.24
2023-04-13T12:42:00,axn,41.56
2023-04-13T12:43:00,axn,41.98
2023-04-13T12:44:00,axn,45.00
2023-04-13T12:45:00,axn,44.61
2023-04-13T12:46:00,axn,45.94
2023-04-13T12:47:00,axn,45.22
2023-04-13T12:48:00,axn,44.96
2023-04-13T12:49:00,axn,44.61
2023-04-13T12:50:00,axn,47.38
2023-04-13T12:51:00,axn,46.91
2023-04-13T12:52:00,axn,44.47
2023-04-13T12:53:00,axn,44.86
2023-04-13T12:54:00,axn,43.55
2023-04-13T12:55:00,axn,43.97
2023-04-13T12:56:00,axn,43.71
2023-04-13T12:57:00,axn,43.16
2023-04-13T12:58:00,axn,42.90
2023-04-13T12:59:00,axn,42.43
2023-04-13T13:00:00,axn,42.75
2023-04-13T13:01:00,axn,43.34
2023-04-13T13:02:00,axn,43.75
2023-04-13T13:03:00,axn,42.80
2023-04-13T13:04:00,axn,43.28
2023-04-13T13:05:00,axn,42.68
2023-04-13T13:06:00,axn,42.06
2023-04-13T13:07:00,axn,42.39
2023-04-13T13:08:00,axn,42.05
2023-04-13T13:09:00,axn,42.38
2023-04-13T13:10:00,axn,42.71
2023-04-13T13:11:00,axn,42.56
2023-04-13T13:12:00,axn,42.74
2023-04-13T13:13:00,axn,42.66
2023-04-13T13:14:00,axn,41.99
2023-04-13T13:15:00,axn,41.90
2023-04-13T13:16:00,axn,42.15
2023-04-13T13:17:00,axn,42.46
2023-04-13T13:18:00,axn,45.22